| time (UTC) | temp F | wind direction | speed MPH | gust MPH | rain 1hr in | rain 24hr in | rain mn in | humidity % | barometer mb |
| 20260509021844 | 83 | 141 | 4.0 | 8.0 | 0.00 | 0.09 | 0.09 | 81 | 1008.7 |
| 20260509021341 | 83 | 145 | 4.0 | 11.0 | 0.00 | 0.09 | 0.09 | 81 | 1008.6 |
| 20260509020839 | 83 | 126 | 6.0 | 9.0 | 0.00 | 0.09 | 0.09 | 81 | 1008.6 |
| 20260509020337 | 83 | 142 | 4.0 | 10.0 | 0.00 | 0.09 | 0.09 | 81 | 1008.4 |
| 20260509015834 | 83 | 148 | 4.0 | 13.0 | 0.00 | 0.09 | 0.09 | 81 | 1008.5 |
| 20260509015332 | 83 | 140 | 6.0 | 10.0 | 0.00 | 0.09 | 0.09 | 81 | 1008.1 |
| 20260509014829 | 83 | 141 | 8.0 | 14.0 | 0.00 | 0.09 | 0.09 | 81 | 1007.9 |
| 20260509014326 | 83 | 127 | 9.0 | 14.0 | 0.00 | 0.09 | 0.09 | 81 | 1007.8 |
| 20260509013822 | 84 | 130 | 4.0 | 10.0 | 0.00 | 0.09 | 0.09 | 80 | 1007.6 |
| 20260509013319 | 84 | 101 | 4.0 | 11.0 | 0.00 | 0.09 | 0.09 | 80 | 1007.7 |
| 20260509012814 | 84 | 119 | 5.0 | 8.0 | 0.00 | 0.09 | 0.09 | 80 | 1007.6 |
| 20260509012311 | 84 | 142 | 6.0 | 8.0 | 0.00 | 0.09 | 0.09 | 79 | 1007.6 |
| 20260509011809 | 84 | 119 | 4.0 | 10.0 | 0.00 | 0.09 | 0.09 | 79 | 1007.3 |
| 20260509011306 | 84 | 141 | 6.0 | 12.0 | 0.00 | 0.09 | 0.09 | 78 | 1007.1 |
| 20260509010803 | 85 | 142 | 7.0 | 13.0 | 0.00 | 0.09 | 0.09 | 78 | 1007.1 |
| 20260509010300 | 85 | 123 | 7.0 | 13.0 | 0.00 | 0.09 | 0.09 | 78 | 1007.0 |
| 20260509005752 | 85 | 132 | 5.0 | 7.0 | 0.00 | 0.09 | 0.09 | 78 | 1007.2 |
| 20260509005249 | 85 | 136 | 6.0 | 10.0 | 0.00 | 0.09 | 0.09 | 78 | 1007.0 |
| 20260509004744 | 85 | 129 | 9.0 | 9.0 | 0.00 | 0.09 | 0.09 | 78 | 1007.2 |
| 20260509004241 | 85 | 132 | 4.0 | 9.0 | 0.00 | 0.09 | 0.09 | 78 | 1007.2 |
| 20260509003739 | 86 | 139 | 5.0 | 16.0 | 0.00 | 0.09 | 0.09 | 78 | 1007.2 |
| 20260509003237 | 86 | 139 | 7.0 | 15.0 | 0.00 | 0.09 | 0.09 | 77 | 1007.2 |
| 20260509002734 | 86 | 140 | 8.0 | 13.0 | 0.00 | 0.09 | 0.09 | 77 | 1007.1 |
| 20260509002231 | 86 | 140 | 7.0 | 9.0 | 0.00 | 0.09 | 0.09 | 77 | 1006.8 |
| 20260509001729 | 86 | 135 | 4.0 | 10.0 | 0.00 | 0.09 | 0.09 | 78 | 1006.8 |
| 20260509001224 | 86 | 122 | 6.0 | 8.0 | 0.00 | 0.09 | 0.09 | 76 | 1006.8 |
| 20260509000723 | 86 | 112 | 3.0 | 10.0 | 0.00 | 0.09 | 0.09 | 76 | 1007.3 |
| 20260509000219 | 86 | 128 | 4.0 | 8.0 | 0.00 | 0.09 | 0.09 | 76 | 1007.1 |
| 20260508235716 | 87 | 145 | 4.0 | 12.0 | 0.00 | 0.09 | 0.09 | 74 | 1007.0 |
| 20260508235213 | 87 | 144 | 5.0 | 8.0 | 0.00 | 0.09 | 0.09 | 73 | 1007.2 |
| 20260508234710 | 87 | 104 | 2.0 | 4.0 | 0.00 | 0.09 | 0.09 | 73 | 1007.2 |
| 20260508234206 | 87 | 145 | 1.0 | 4.0 | 0.00 | 0.09 | 0.09 | 73 | 1007.0 |
| 20260508233700 | 87 | 101 | 4.0 | 6.0 | 0.00 | 0.09 | 0.09 | 73 | 1007.2 |
| 20260508233157 | 87 | 87 | 2.0 | 5.0 | 0.00 | 0.09 | 0.09 | 72 | 1007.2 |
| 20260508232655 | 88 | 108 | 2.0 | 5.0 | 0.00 | 0.09 | 0.09 | 72 | 1007.4 |
| 20260508232151 | 88 | 116 | 2.0 | 4.0 | 0.00 | 0.09 | 0.09 | 72 | 1007.3 |
| 20260508231649 | 87 | 143 | 2.0 | 6.0 | 0.00 | 0.09 | 0.09 | 73 | 1007.2 |
| 20260508231146 | 87 | 131 | 3.0 | 5.0 | 0.00 | 0.09 | 0.09 | 73 | 1007.4 |
| 20260508230642 | 87 | 29 | 2.0 | 4.0 | 0.00 | 0.09 | 0.09 | 73 | 1007.2 |
| 20260508230139 | 87 | 45 | 2.0 | 4.0 | 0.00 | 0.09 | 0.09 | 73 | 1007.2 |
| 20260508225637 | 87 | 155 | 2.0 | 4.0 | 0.00 | 0.09 | 0.09 | 73 | 1007.0 |
| 20260508225133 | 87 | 150 | 4.0 | 4.0 | 0.00 | 0.09 | 0.09 | 73 | 1007.2 |
| 20260508224631 | 87 | 167 | 1.0 | 4.0 | 0.00 | 0.09 | 0.09 | 73 | 1007.1 |
| 20260508224128 | 87 | 110 | 2.0 | 5.0 | 0.00 | 0.09 | 0.09 | 73 | 1007.1 |
| 20260508223626 | 87 | 138 | 1.0 | 6.0 | 0.00 | 0.09 | 0.09 | 72 | 1007.2 |
| 20260508223123 | 87 | 104 | 5.0 | 6.0 | 0.00 | 0.09 | 0.09 | 72 | 1007.1 |
| 20260508222620 | 87 | 113 | 3.0 | 7.0 | 0.00 | 0.09 | 0.09 | 71 | 1007.4 |
| 20260508222117 | 87 | 73 | 2.0 | 4.0 | 0.00 | 0.09 | 0.09 | 72 | 1007.6 |
| 20260508221613 | 87 | 143 | 3.0 | 6.0 | 0.00 | 0.09 | 0.09 | 73 | 1007.8 |
| 20260508221109 | 87 | 138 | 7.0 | 11.0 | 0.00 | 0.09 | 0.09 | 72 | 1007.5 |
| 20260508220606 | 87 | 135 | 3.0 | 4.0 | 0.00 | 0.09 | 0.09 | 73 | 1007.7 |
| 20260508215559 | 87 | 111 | 2.0 | 4.0 | 0.00 | 0.09 | 0.09 | 73 | 1007.9 |
| 20260508215056 | 87 | 126 | 5.0 | 5.0 | 0.00 | 0.09 | 0.09 | 72 | 1008.0 |
| 20260508214553 | 87 | 175 | 2.0 | 4.0 | 0.00 | 0.09 | 0.09 | 73 | 1008.2 |
| 20260508214049 | 87 | 21 | 1.0 | 4.0 | 0.00 | 0.09 | 0.09 | 73 | 1008.1 |
| 20260508213547 | 87 | 75 | 2.0 | 4.0 | 0.00 | 0.09 | 0.09 | 71 | 1008.2 |
| 20260508213042 | 87 | 157 | 2.0 | 4.0 | 0.00 | 0.09 | 0.09 | 72 | 1008.6 |
| 20260508212539 | 86 | 108 | 2.0 | 4.0 | 0.00 | 0.09 | 0.09 | 73 | 1008.7 |
| 20260508212036 | 86 | 173 | 2.0 | 3.0 | 0.00 | 0.09 | 0.09 | 73 | 1008.8 |
| 20260508211531 | 86 | 183 | 2.0 | 4.0 | 0.00 | 0.09 | 0.09 | 73 | 1008.7 |
| 20260508211028 | 86 | 175 | 2.0 | 5.0 | 0.00 | 0.09 | 0.09 | 72 | 1008.7 |
| 20260508210524 | 87 | 117 | 7.0 | 8.0 | 0.00 | 0.09 | 0.09 | 73 | 1008.8 |
| 20260508210022 | 87 | 11 | 2.0 | 4.0 | 0.00 | 0.09 | 0.09 | 73 | 1008.9 |
| 20260508205519 | 87 | 65 | 2.0 | 2.0 | 0.00 | 0.09 | 0.09 | 72 | 1008.8 |
| 20260508205015 | 87 | 194 | 1.0 | 4.0 | 0.00 | 0.09 | 0.09 | 72 | 1009.0 |
| 20260508204512 | 87 | 194 | 5.0 | 5.0 | 0.00 | 0.09 | 0.09 | 72 | 1009.0 |
| 20260508204007 | 87 | 239 | 1.0 | 3.0 | 0.00 | 0.09 | 0.09 | 73 | 1009.2 |
| 20260508203458 | 87 | 153 | 1.0 | 5.0 | 0.00 | 0.09 | 0.09 | 71 | 1009.2 |
| 20260508202954 | 86 | 202 | 2.0 | 3.0 | 0.00 | 0.09 | 0.09 | 74 | 1009.1 |
| 20260508202451 | 86 | 163 | 4.0 | 5.0 | 0.00 | 0.09 | 0.09 | 74 | 1009.4 |
| 20260508201948 | 86 | 147 | 3.0 | 6.0 | 0.00 | 0.09 | 0.09 | 74 | 1009.2 |
| 20260508201445 | 86 | 81 | 2.0 | 4.0 | 0.00 | 0.09 | 0.09 | 74 | 1009.5 |
| 20260508200941 | 87 | 42 | 3.0 | 5.0 | 0.00 | 0.09 | 0.09 | 73 | 1009.4 |
| 20260508200438 | 87 | 131 | 3.0 | 3.0 | 0.00 | 0.09 | 0.09 | 74 | 1009.5 |
| 20260508195933 | 86 | 163 | 3.0 | 8.0 | 0.00 | 0.09 | 0.09 | 73 | 1009.8 |
| 20260508195431 | 86 | 171 | 4.0 | 5.0 | 0.00 | 0.09 | 0.09 | 74 | 1009.7 |
| 20260508194927 | 86 | 157 | 3.0 | 6.0 | 0.00 | 0.09 | 0.09 | 74 | 1009.6 |
| 20260508194424 | 86 | 75 | 5.0 | 5.0 | 0.00 | 0.09 | 0.09 | 76 | 1009.8 |
| 20260508193921 | 85 | 329 | 1.0 | 3.0 | 0.00 | 0.09 | 0.09 | 76 | 1009.9 |
| 20260508193418 | 85 | 205 | 2.0 | 2.0 | 0.00 | 0.09 | 0.09 | 77 | 1010.0 |
| 20260508192914 | 85 | 99 | 1.0 | 4.0 | 0.00 | 0.09 | 0.09 | 79 | 1010.2 |
| 20260508192411 | 85 | 56 | 5.0 | 5.0 | 0.00 | 0.09 | 0.09 | 78 | 1010.1 |
| 20260508191908 | 84 | 315 | 2.0 | 4.0 | 0.00 | 0.09 | 0.09 | 80 | 1010.1 |
| 20260508191405 | 84 | 317 | 0.0 | 3.0 | 0.00 | 0.09 | 0.09 | 78 | 1010.1 |
| 20260508190856 | 83 | 45 | 2.0 | 4.0 | 0.00 | 0.09 | 0.09 | 81 | 1010.0 |
| 20260508190353 | 83 | 84 | 2.0 | 3.0 | 0.00 | 0.09 | 0.09 | 82 | 1010.3 |
| 20260508185849 | 83 | 32 | 3.0 | 5.0 | 0.00 | 0.09 | 0.09 | 81 | 1010.6 |
| 20260508185347 | 82 | 33 | 4.0 | 4.0 | 0.00 | 0.09 | 0.09 | 86 | 1010.7 |
| 20260508184844 | 81 | 49 | 2.0 | 4.0 | 0.00 | 0.09 | 0.09 | 84 | 1010.9 |
| 20260508184342 | 81 | 49 | 3.0 | 4.0 | 0.00 | 0.09 | 0.09 | 83 | 1010.9 |
| 20260508183838 | 81 | 126 | 1.0 | 5.0 | 0.00 | 0.09 | 0.09 | 84 | 1011.0 |
| 20260508183335 | 81 | 196 | 1.0 | 3.0 | 0.00 | 0.09 | 0.09 | 84 | 1011.2 |
| 20260508182830 | 80 | 338 | 2.0 | 4.0 | 0.00 | 0.09 | 0.09 | 86 | 1011.3 |
| 20260508182327 | 79 | 349 | 2.0 | 5.0 | 0.00 | 0.09 | 0.09 | 88 | 1011.3 |
| 20260508181823 | 78 | 44 | 5.0 | 6.0 | 0.00 | 0.09 | 0.09 | 89 | 1011.2 |
| 20260508181320 | 78 | 56 | 4.0 | 5.0 | 0.00 | 0.09 | 0.09 | 89 | 1011.3 |
| 20260508180817 | 78 | 353 | 2.0 | 6.0 | 0.00 | 0.09 | 0.09 | 89 | 1011.2 |
| 20260508180314 | 77 | 14 | 2.0 | 4.0 | 0.00 | 0.09 | 0.09 | 91 | 1011.5 |
| 20260508175810 | 76 | 270 | 2.0 | 5.0 | 0.00 | 0.09 | 0.09 | 92 | 1011.6 |
| 20260508175307 | 76 | 31 | 3.0 | 6.0 | 0.00 | 0.09 | 0.09 | 91 | 1011.8 |
| 20260508174805 | 76 | 98 | 4.0 | 6.0 | 0.00 | 0.09 | 0.09 | 92 | 1011.7 |
| 20260508174302 | 76 | 138 | 4.0 | 5.0 | 0.00 | 0.09 | 0.09 | 92 | 1011.7 |
| 20260508173758 | 76 | 23 | 1.0 | 6.0 | 0.00 | 0.09 | 0.09 | 92 | 1011.9 |
| 20260508173255 | 76 | 74 | 2.0 | 5.0 | 0.00 | 0.09 | 0.09 | 93 | 1012.1 |
| 20260508172751 | 75 | 58 | 3.0 | 7.0 | 0.00 | 0.09 | 0.09 | 94 | 1012.1 |
| 20260508172248 | 75 | 8 | 3.0 | 6.0 | 0.00 | 0.09 | 0.09 | 95 | 1012.0 |
| 20260508171745 | 75 | 31 | 3.0 | 5.0 | 0.00 | 0.09 | 0.09 | 95 | 1012.1 |
| 20260508171241 | 74 | 59 | 3.0 | 6.0 | 0.00 | 0.09 | 0.09 | 95 | 1012.3 |
| 20260508170738 | 74 | 23 | 5.0 | 8.0 | 0.00 | 0.09 | 0.09 | 95 | 1012.3 |
| 20260508170236 | 73 | 333 | 2.0 | 6.0 | 0.00 | 0.09 | 0.09 | 96 | 1012.4 |
| 20260508165732 | 73 | 22 | 4.0 | 6.0 | 0.00 | 0.09 | 0.09 | 96 | 1012.6 |
| 20260508165230 | 73 | 65 | 4.0 | 6.0 | 0.00 | 0.09 | 0.09 | 96 | 1012.7 |
| 20260508164726 | 73 | 34 | 4.0 | 5.0 | 0.00 | 0.09 | 0.09 | 96 | 1012.8 |
| 20260508164222 | 72 | 339 | 4.0 | 7.0 | 0.00 | 0.09 | 0.09 | 96 | 1012.8 |
| 20260508163720 | 73 | 352 | 4.0 | 5.0 | 0.00 | 0.09 | 0.09 | 96 | 1012.8 |
| 20260508163218 | 73 | 358 | 2.0 | 6.0 | 0.00 | 0.09 | 0.09 | 96 | 1012.8 |
| 20260508162713 | 72 | 26 | 3.0 | 5.0 | 0.00 | 0.09 | 0.09 | 96 | 1012.9 |
| 20260508162211 | 72 | 27 | 7.0 | 9.0 | 0.00 | 0.09 | 0.09 | 96 | 1013.0 |
| 20260508161708 | 72 | 10 | 3.0 | 6.0 | 0.00 | 0.09 | 0.09 | 96 | 1013.2 |
| 20260508161205 | 72 | 359 | 0.0 | 6.0 | 0.00 | 0.09 | 0.09 | 96 | 1013.0 |
| 20260508160703 | 72 | 344 | 5.0 | 7.0 | 0.00 | 0.09 | 0.09 | 96 | 1013.1 |
| 20260508160201 | 72 | 326 | 3.0 | 8.0 | 0.00 | 0.09 | 0.09 | 96 | 1013.3 |
| 20260508155657 | 72 | 342 | 4.0 | 6.0 | 0.00 | 0.09 | 0.09 | 96 | 1013.1 |
| 20260508155154 | 73 | 4 | 2.0 | 4.0 | 0.00 | 0.09 | 0.09 | 96 | 1013.2 |
| 20260508154651 | 73 | 5 | 2.0 | 7.0 | 0.00 | 0.09 | 0.09 | 96 | 1013.0 |
| 20260508154148 | 73 | 53 | 3.0 | 5.0 | 0.00 | 0.09 | 0.09 | 97 | 1013.1 |
| 20260508153645 | 73 | 55 | 3.0 | 4.0 | 0.00 | 0.09 | 0.09 | 97 | 1013.2 |
| 20260508153142 | 72 | 42 | 4.0 | 4.0 | 0.00 | 0.09 | 0.09 | 97 | 1013.2 |
| 20260508152638 | 72 | 19 | 2.0 | 4.0 | 0.00 | 0.09 | 0.09 | 97 | 1013.3 |
| 20260508152134 | 72 | 339 | 3.0 | 5.0 | 0.00 | 0.09 | 0.09 | 97 | 1013.5 |
| 20260508151631 | 72 | 328 | 4.0 | 4.0 | 0.00 | 0.09 | 0.09 | 97 | 1013.4 |
| 20260508151127 | 72 | 11 | 2.0 | 6.0 | 0.00 | 0.09 | 0.09 | 97 | 1013.5 |
| 20260508150618 | 72 | 337 | 4.0 | 5.0 | 0.00 | 0.09 | 0.09 | 97 | 1013.5 |
| 20260508150114 | 73 | 341 | 2.0 | 2.0 | 0.00 | 0.09 | 0.09 | 98 | 1013.5 |
| 20260508145605 | 72 | 88 | 0.0 | 3.0 | 0.00 | 0.09 | 0.09 | 98 | 1013.2 |
| 20260508145102 | 72 | 115 | 2.0 | 2.0 | 0.00 | 0.09 | 0.09 | 98 | 1013.2 |
| 20260508144600 | 72 | 284 | 2.0 | 3.0 | 0.00 | 0.09 | 0.09 | 98 | 1013.4 |
| 20260508144057 | 72 | 142 | 1.0 | 3.0 | 0.00 | 0.09 | 0.09 | 98 | 1013.2 |
| 20260508143554 | 71 | 136 | 3.0 | 5.0 | 0.00 | 0.09 | 0.09 | 98 | 1012.9 |
| 20260508143051 | 71 | 133 | 4.0 | 8.0 | 0.00 | 0.09 | 0.09 | 98 | 1012.9 |
| 20260508142548 | 71 | 109 | 2.0 | 6.0 | 0.00 | 0.09 | 0.09 | 98 | 1012.8 |
| 20260508142044 | 71 | 105 | 3.0 | 4.0 | 0.00 | 0.09 | 0.09 | 98 | 1012.8 |
| 20260508141540 | 71 | 115 | 2.0 | 3.0 | 0.00 | 0.09 | 0.09 | 98 | 1012.7 |
| 20260508141033 | 71 | 120 | 1.0 | 5.0 | 0.00 | 0.09 | 0.09 | 98 | 1012.9 |
| 20260508140530 | 70 | 75 | 0.0 | 4.0 | 0.00 | 0.09 | 0.09 | 98 | 1013.1 |
| 20260508140026 | 70 | 65 | 2.0 | 5.0 | 0.00 | 0.09 | 0.09 | 98 | 1012.8 |
| 20260508135522 | 70 | 70 | 3.0 | 5.0 | 0.00 | 0.09 | 0.09 | 98 | 1013.1 |
| 20260508135018 | 70 | 119 | 0.0 | 3.0 | 0.00 | 0.09 | 0.09 | 98 | 1013.1 |
| 20260508134515 | 70 | 8 | 1.0 | 4.0 | 0.00 | 0.09 | 0.09 | 98 | 1013.1 |
| 20260508134012 | 70 | 56 | 2.0 | 6.0 | 0.00 | 0.09 | 0.09 | 98 | 1013.1 |
| 20260508133509 | 70 | 35 | 2.0 | 6.0 | 0.00 | 0.09 | 0.09 | 99 | 1013.3 |
| 20260508133006 | 70 | 127 | 2.0 | 3.0 | 0.00 | 0.09 | 0.09 | 99 | 1013.1 |
| 20260508132504 | 70 | 317 | 0.0 | 3.0 | 0.00 | 0.09 | 0.09 | 99 | 1013.2 |
| 20260508132000 | 70 | 353 | 2.0 | 5.0 | 0.00 | 0.09 | 0.09 | 99 | 1013.3 |
| 20260508131455 | 70 | 353 | 4.0 | 4.0 | 0.00 | 0.09 | 0.09 | 99 | 1013.3 |
| 20260508130952 | 70 | 86 | 2.0 | 2.0 | 0.00 | 0.09 | 0.09 | 99 | 1013.4 |
| 20260508130450 | 70 | 347 | 2.0 | 3.0 | 0.00 | 0.09 | 0.09 | 99 | 1013.5 |
| 20260508125945 | 70 | 351 | 3.0 | 4.0 | 0.00 | 0.09 | 0.09 | 99 | 1013.5 |
| 20260508125441 | 70 | 340 | 0.0 | 6.0 | 0.00 | 0.09 | 0.09 | 99 | 1013.2 |
| 20260508124939 | 70 | 359 | 3.0 | 6.0 | 0.00 | 0.09 | 0.09 | 99 | 1013.4 |
| 20260508124437 | 70 | 4 | 3.0 | 6.0 | 0.00 | 0.09 | 0.09 | 99 | 1013.4 |
| 20260508123934 | 70 | 348 | 4.0 | 8.0 | 0.00 | 0.09 | 0.09 | 99 | 1013.3 |
| 20260508123433 | 70 | 351 | 6.0 | 7.0 | 0.00 | 0.09 | 0.09 | 99 | 1013.4 |
| 20260508122929 | 70 | 326 | 5.0 | 7.0 | 0.00 | 0.09 | 0.09 | 99 | 1013.4 |
| 20260508122426 | 70 | 340 | 4.0 | 7.0 | 0.00 | 0.09 | 0.09 | 99 | 1013.2 |
| 20260508121923 | 70 | 335 | 4.0 | 6.0 | 0.00 | 0.09 | 0.09 | 99 | 1013.0 |
| 20260508121421 | 70 | 355 | 3.0 | 6.0 | 0.00 | 0.09 | 0.09 | 99 | 1012.9 |
| 20260508120919 | 70 | 324 | 3.0 | 6.0 | 0.00 | 0.09 | 0.09 | 99 | 1012.8 |
| 20260508120416 | 70 | 1 | 3.0 | 7.0 | 0.00 | 0.09 | 0.09 | 99 | 1012.9 |
| 20260508115914 | 70 | 340 | 3.0 | 5.0 | 0.00 | 0.09 | 0.09 | 99 | 1012.6 |
| 20260508115412 | 70 | 21 | 1.0 | 9.0 | 0.00 | 0.09 | 0.09 | 99 | 1012.7 |
| 20260508114907 | 70 | 280 | 2.0 | 3.0 | 0.00 | 0.09 | 0.09 | 99 | 1012.8 |
| 20260508114404 | 70 | 342 | 4.0 | 5.0 | 0.00 | 0.09 | 0.09 | 99 | 1012.7 |
| 20260508113901 | 70 | 331 | 4.0 | 6.0 | 0.00 | 0.09 | 0.09 | 99 | 1012.7 |
| 20260508113359 | 70 | 323 | 2.0 | 6.0 | 0.00 | 0.09 | 0.09 | 99 | 1012.3 |
| 20260508112856 | 70 | 323 | 3.0 | 4.0 | 0.00 | 0.09 | 0.09 | 99 | 1012.2 |
| 20260508112353 | 70 | 105 | 2.0 | 2.0 | 0.00 | 0.09 | 0.09 | 99 | 1012.3 |
| 20260508111849 | 70 | 331 | 1.0 | 2.0 | 0.00 | 0.09 | 0.09 | 99 | 1012.5 |
| 20260508111346 | 70 | 340 | 1.0 | 3.0 | 0.00 | 0.09 | 0.09 | 99 | 1012.4 |
| 20260508110843 | 70 | 269 | 2.0 | 3.0 | 0.00 | 0.09 | 0.09 | 99 | 1012.7 |
| 20260508110341 | 70 | 315 | 3.0 | 3.0 | 0.00 | 0.09 | 0.09 | 99 | 1012.9 |
| 20260508105840 | 70 | 303 | 3.0 | 4.0 | 0.00 | 0.09 | 0.09 | 99 | 1012.9 |
| 20260508105338 | 70 | 316 | 3.0 | 4.0 | 0.00 | 0.09 | 0.09 | 99 | 1012.8 |
| 20260508104835 | 70 | 339 | 3.0 | 6.0 | 0.00 | 0.09 | 0.09 | 99 | 1012.9 |
| 20260508104331 | 70 | 342 | 3.0 | 6.0 | 0.02 | 0.09 | 0.09 | 99 | 1012.9 |
| 20260508103829 | 70 | 313 | 3.0 | 4.0 | 0.02 | 0.09 | 0.09 | 99 | 1012.7 |
| 20260508103325 | 70 | 320 | 6.0 | 6.0 | 0.00 | 0.09 | 0.09 | 99 | 1012.6 |
| 20260508102823 | 70 | 324 | 4.0 | 7.0 | 0.02 | 0.09 | 0.09 | 99 | 1012.5 |
| 20260508102321 | 70 | 318 | 2.0 | 3.0 | 0.05 | 0.09 | 0.09 | 99 | 1012.4 |
| 20260508101818 | 70 | 340 | 2.0 | 3.0 | 0.05 | 0.09 | 0.09 | 99 | 1012.0 |
| 20260508101315 | 70 | 52 | 2.0 | 2.0 | 0.02 | 0.08 | 0.08 | 99 | 1011.9 |
| 20260508100812 | 70 | 12 | 1.0 | 3.0 | 0.00 | 0.08 | 0.08 | 99 | 1012.4 |
| 20260508100311 | 70 | 313 | 0.0 | 3.0 | 0.00 | 0.08 | 0.08 | 99 | 1012.3 |
| 20260508095806 | 70 | 9 | 1.0 | 2.0 | 0.00 | 0.08 | 0.08 | 99 | 1012.4 |
| 20260508095306 | 70 | 321 | 4.0 | 4.0 | 0.00 | 0.08 | 0.08 | 99 | 1012.6 |
| 20260508094800 | 70 | 330 | 3.0 | 4.0 | 0.00 | 0.08 | 0.08 | 99 | 1012.5 |
| 20260508094258 | 71 | 347 | 4.0 | 6.0 | 0.00 | 0.08 | 0.08 | 99 | 1012.9 |
| 20260508093755 | 71 | 288 | 2.0 | 3.0 | 0.00 | 0.08 | 0.08 | 99 | 1012.8 |
| 20260508093252 | 71 | 320 | 5.0 | 6.0 | 0.00 | 0.08 | 0.08 | 99 | 1012.7 |
| 20260508092749 | 71 | 295 | 6.0 | 8.0 | 0.00 | 0.08 | 0.08 | 99 | 1012.5 |
| 20260508092247 | 71 | 334 | 5.0 | 6.0 | 0.00 | 0.08 | 0.08 | 99 | 1012.5 |
| 20260508091745 | 71 | 310 | 3.0 | 7.0 | 0.00 | 0.08 | 0.08 | 99 | 1012.4 |
| 20260508091242 | 71 | 310 | 3.0 | 6.0 | 0.00 | 0.08 | 0.08 | 99 | 1012.1 |
| 20260508090739 | 71 | 329 | 3.0 | 4.0 | 0.00 | 0.08 | 0.08 | 99 | 1011.8 |
| 20260508090237 | 71 | 343 | 4.0 | 5.0 | 0.00 | 0.08 | 0.08 | 99 | 1011.8 |
| 20260508085732 | 71 | 333 | 4.0 | 6.0 | 0.00 | 0.08 | 0.08 | 99 | 1011.9 |
| 20260508085230 | 71 | 330 | 3.0 | 4.0 | 0.00 | 0.08 | 0.08 | 99 | 1012.5 |
| 20260508084725 | 71 | 359 | 6.0 | 8.0 | 0.00 | 0.08 | 0.08 | 99 | 1011.9 |
| 20260508084223 | 72 | 344 | 3.0 | 6.0 | 0.00 | 0.08 | 0.08 | 99 | 1012.0 |
| 20260508083721 | 72 | 309 | 4.0 | 6.0 | 0.00 | 0.08 | 0.08 | 99 | 1012.2 |
| 20260508083218 | 72 | 331 | 3.0 | 6.0 | 0.00 | 0.08 | 0.08 | 99 | 1012.5 |
| 20260508082713 | 72 | 355 | 4.0 | 6.0 | 0.00 | 0.08 | 0.08 | 99 | 1012.3 |
| 20260508082211 | 72 | 354 | 1.0 | 3.0 | 0.00 | 0.08 | 0.08 | 99 | 1012.6 |
| 20260508081708 | 73 | 341 | 0.0 | 4.0 | 0.00 | 0.08 | 0.08 | 99 | 1013.0 |
| 20260508081204 | 73 | 348 | 2.0 | 5.0 | 0.00 | 0.08 | 0.08 | 99 | 1012.9 |
| 20260508080702 | 73 | 320 | 1.0 | 3.0 | 0.00 | 0.08 | 0.08 | 99 | 1013.1 |
| 20260508080200 | 73 | 342 | 3.0 | 5.0 | 0.00 | 0.08 | 0.08 | 99 | 1013.0 |
| 20260508075656 | 73 | 6 | 2.0 | 5.0 | 0.00 | 0.08 | 0.08 | 99 | 1012.5 |
| 20260508075153 | 73 | 340 | 6.0 | 6.0 | 0.00 | 0.08 | 0.08 | 99 | 1012.3 |
| 20260508074651 | 73 | 20 | 2.0 | 3.0 | 0.00 | 0.08 | 0.08 | 99 | 1012.7 |
| 20260508074148 | 73 | 351 | 2.0 | 4.0 | 0.00 | 0.08 | 0.08 | 99 | 1012.8 |
| 20260508073645 | 73 | 345 | 3.0 | 6.0 | 0.00 | 0.08 | 0.08 | 99 | 1012.5 |
| 20260508073143 | 73 | 352 | 2.0 | 4.0 | 0.00 | 0.08 | 0.08 | 99 | 1012.3 |
| 20260508072638 | 73 | 12 | 2.0 | 4.0 | 0.00 | 0.08 | 0.08 | 99 | 1012.6 |
| 20260508072135 | 73 | 34 | 1.0 | 5.0 | 0.00 | 0.08 | 0.08 | 98 | 1012.6 |
| 20260508071633 | 73 | 58 | 2.0 | 3.0 | 0.00 | 0.08 | 0.08 | 98 | 1012.8 |
| 20260508071131 | 73 | 13 | 3.0 | 3.0 | 0.00 | 0.08 | 0.08 | 98 | 1013.1 |
| 20260508070628 | 73 | 68 | 0.0 | 4.0 | 0.00 | 0.08 | 0.08 | 98 | 1013.4 |
| 20260508070127 | 73 | 80 | 2.0 | 3.0 | 0.00 | 0.08 | 0.08 | 98 | 1013.8 |
| 20260508065624 | 73 | 67 | 2.0 | 3.0 | 0.00 | 0.08 | 0.08 | 98 | 1013.6 |
| 20260508065122 | 73 | 100 | 1.0 | 3.0 | 0.00 | 0.08 | 0.08 | 98 | 1013.9 |
| 20260508064619 | 73 | 57 | 0.0 | 3.0 | 0.00 | 0.08 | 0.08 | 98 | 1013.5 |
| 20260508064117 | 73 | 140 | 2.0 | 4.0 | 0.02 | 0.08 | 0.08 | 98 | 1013.5 |
| 20260508063614 | 73 | 134 | 0.0 | 4.0 | 0.02 | 0.07 | 0.07 | 98 | 1013.3 |
| 20260508063112 | 73 | 4 | 1.0 | 4.0 | 0.05 | 0.07 | 0.07 | 98 | 1013.5 |
| 20260508062609 | 73 | 331 | 0.0 | 3.0 | 0.09 | 0.07 | 0.07 | 98 | 1013.7 |
| 20260508062106 | 73 | 137 | 4.0 | 8.0 | 0.14 | 0.07 | 0.07 | 98 | 1013.4 |
| 20260508061604 | 73 | 133 | 9.0 | 10.0 | 0.19 | 0.06 | 0.06 | 98 | 1013.7 |
| 20260508061101 | 73 | 132 | 6.0 | 7.0 | 0.14 | 0.04 | 0.04 | 98 | 1014.1 |
| 20260508060558 | 72 | 71 | 2.0 | 3.0 | 0.14 | 0.03 | 0.03 | 98 | 1014.5 |
| 20260508060055 | 72 | 228 | 0.0 | 1.0 | 0.07 | 0.02 | 0.02 | 98 | 1015.1 |
| 20260508055550 | 73 | 309 | 1.0 | 5.0 | 0.05 | 0.01 | 0.01 | 98 | 1015.7 |
| 20260508055048 | 73 | 240 | 2.0 | 5.0 | 0.02 | 0.00 | 0.00 | 98 | 1015.8 |
| 20260508054544 | 73 | 261 | 4.0 | 4.0 | 0.00 | 0.00 | 0.00 | 98 | 1015.7 |
| 20260508054041 | 73 | 231 | 4.0 | 5.0 | 0.00 | 0.00 | 0.00 | 98 | 1015.9 |
| 20260508053538 | 72 | 233 | 6.0 | 6.0 | 0.00 | 0.00 | 0.00 | 98 | 1016.0 |
| 20260508053036 | 72 | 229 | 3.0 | 5.0 | 0.00 | 0.00 | 0.00 | 97 | 1015.4 |
| 20260508052533 | 72 | 146 | 0.0 | 2.0 | 0.00 | 0.00 | 0.00 | 97 | 1014.5 |
| 20260508052030 | 72 | 135 | 2.0 | 2.0 | 0.00 | 0.00 | 0.00 | 97 | 1013.9 |
| 20260508051526 | 72 | 33 | 3.0 | 5.0 | 0.00 | 0.00 | 0.00 | 97 | 1013.7 |
| 20260508051021 | 72 | 340 | 2.0 | 5.0 | 0.00 | 0.00 | 0.00 | 97 | 1013.6 |
| 20260508050518 | 72 | 103 | 4.0 | 5.0 | 0.00 | 0.00 | 0.00 | 97 | 1013.3 |
| 20260508050016 | 72 | 113 | 5.0 | 5.0 | 0.00 | 0.01 | 0.01 | 97 | 1013.5 |
| 20260508045512 | 72 | 73 | 3.0 | 6.0 | 0.00 | 0.01 | 0.01 | 97 | 1014.1 |
| 20260508045009 | 71 | 98 | 5.0 | 8.0 | 0.00 | 0.01 | 0.01 | 96 | 1014.1 |
| 20260508044506 | 71 | 60 | 2.0 | 7.0 | 0.00 | 0.01 | 0.01 | 96 | 1013.9 |
| 20260508044001 | 71 | 26 | 2.0 | 9.0 | 0.00 | 0.01 | 0.01 | 96 | 1013.8 |
| 20260508043454 | 71 | 48 | 4.0 | 6.0 | 0.00 | 0.01 | 0.01 | 96 | 1013.8 |
| 20260508042949 | 72 | 55 | 2.0 | 8.0 | 0.00 | 0.01 | 0.01 | 95 | 1013.9 |
| 20260508042448 | 72 | 72 | 3.0 | 6.0 | 0.02 | 0.01 | 0.01 | 95 | 1013.8 |
| 20260508041944 | 71 | 130 | 2.0 | 5.0 | 0.02 | 0.01 | 0.01 | 95 | 1013.7 |
| 20260508041441 | 71 | 16 | 1.0 | 4.0 | 0.00 | 0.00 | 0.00 | 95 | 1014.0 |
| 20260508040937 | 71 | 53 | 5.0 | 10.0 | 0.02 | 0.00 | 0.00 | 94 | 1014.1 |
| 20260508040435 | 72 | 61 | 3.0 | 6.0 | 0.02 | 0.00 | 0.00 | 94 | 1014.0 |
| 20260508035933 | 72 | 28 | 2.0 | 6.0 | 0.00 | 0.00 | 0.00 | 93 | 1014.0 |
| 20260508035429 | 72 | 35 | 6.0 | 7.0 | 0.00 | 0.00 | 0.00 | 93 | 1013.9 |
| 20260508034926 | 72 | 50 | 5.0 | 8.0 | 0.00 | 0.00 | 0.00 | 93 | 1014.2 |
| 20260508034424 | 72 | 57 | 5.0 | 8.0 | 0.00 | 0.00 | 0.00 | 92 | 1014.6 |
| 20260508033920 | 72 | 356 | 4.0 | 6.0 | 0.00 | 0.00 | 0.00 | 92 | 1014.3 |
| 20260508033418 | 72 | 48 | 3.0 | 5.0 | 0.00 | 0.00 | 0.00 | 92 | 1014.4 |
| 20260508032915 | 72 | 46 | 4.0 | 5.0 | 0.00 | 0.00 | 0.00 | 92 | 1014.4 |
| 20260508032413 | 72 | 80 | 5.0 | 9.0 | 0.00 | 0.00 | 0.00 | 92 | 1014.3 |
| 20260508031909 | 72 | 306 | 2.0 | 7.0 | 0.00 | 0.00 | 0.00 | 92 | 1014.3 |
| 20260508031407 | 72 | 32 | 3.0 | 4.0 | 0.00 | 0.00 | 0.00 | 92 | 1014.3 |
| 20260508030902 | 72 | 56 | 2.0 | 5.0 | 0.00 | 0.00 | 0.00 | 91 | 1014.2 |
| 20260508030359 | 72 | 19 | 5.0 | 6.0 | 0.00 | 0.00 | 0.00 | 91 | 1014.1 |
| 20260508025857 | 72 | 51 | 2.0 | 5.0 | 0.00 | 0.00 | 0.00 | 91 | 1014.0 |
| 20260508025353 | 72 | 44 | 5.0 | 12.0 | 0.00 | 0.00 | 0.00 | 91 | 1013.9 |
| 20260508024850 | 72 | 67 | 6.0 | 13.0 | 0.00 | 0.00 | 0.00 | 91 | 1013.6 |
| 20260508024346 | 72 | 41 | 5.0 | 9.0 | 0.00 | 0.00 | 0.00 | 91 | 1013.7 |
| 20260508023838 | 72 | 72 | 5.0 | 6.0 | 0.00 | 0.00 | 0.00 | 90 | 1013.8 |
| 20260508023335 | 72 | 71 | 6.0 | 10.0 | 0.00 | 0.00 | 0.00 | 90 | 1014.0 |
| 20260508022831 | 72 | 43 | 6.0 | 8.0 | 0.00 | 0.00 | 0.00 | 90 | 1014.0 |
| 20260508022327 | 72 | 16 | 4.0 | 10.0 | 0.00 | 0.00 | 0.00 | 90 | 1014.1 |